This is the latest recevied weather packets stored in our database for station/object IU2EVW-13. If no packets are shown the sender has not sent any weather packets the latest 10 day(s).
| Time | Temp. | Humidity | Pressure | Rain* | Wind** | Luminosity | Snow |
|---|---|---|---|---|---|---|---|
| 1787882716 | 20.56° C | 74% | 1021.4 hPa | - | - | - | - |
| 1787881515 | 20.56° C | 73% | 1021.1 hPa | - | - | - | - |
| 1787880313 | 20.56° C | 70% | 1020.8 hPa | - | - | - | - |
| 1787879112 | 20.56° C | 74% | 1021.1 hPa | - | - | - | - |
| 1787877911 | 20.56° C | 73% | 1021.1 hPa | - | - | - | - |
| 1787876710 | 21.11° C | 69% | 1021.4 hPa | - | - | - | - |
| 1787875508 | 21.67° C | 69% | 1021.7 hPa | - | - | - | - |
| 1787874307 | 21.67° C | 68% | 1022 hPa | - | - | - | - |
| 1787873106 | 21.67° C | 66% | 1021.9 hPa | - | - | - | - |
| 1787871904 | 21.67° C | 65% | 1021.7 hPa | - | - | - | - |
| 1787870703 | 22.22° C | 64% | 1022.1 hPa | - | - | - | - |
| 1787869502 | 22.22° C | 65% | 1022 hPa | - | - | - | - |
| 1787868301 | 22.22° C | 65% | 1022 hPa | - | - | - | - |
| 1787867099 | 22.22° C | 65% | 1022 hPa | - | - | - | - |
| 1787865898 | 22.22° C | 65% | 1021.8 hPa | - | - | - | - |
| 1787864696 | 22.22° C | 64% | 1021.7 hPa | - | - | - | - |
| 1787863496 | 22.78° C | 62% | 1021.8 hPa | - | - | - | - |
| 1787862294 | 22.78° C | 62% | 1021.7 hPa | - | - | - | - |
| 1787861093 | 22.78° C | 60% | 1021.8 hPa | - | - | - | - |
| 1787859891 | 22.78° C | 61% | 1021.6 hPa | - | - | - | - |
| 1787858690 | 22.78° C | 62% | 1021.6 hPa | - | - | - | - |
| 1787857488 | 22.78° C | 62% | 1021.5 hPa | - | - | - | - |
| 1787856287 | 22.78° C | 62% | 1021.3 hPa | - | - | - | - |
| 1787855086 | 23.33° C | 61% | 1021.1 hPa | - | - | - | - |
| 1787853884 | 23.33° C | 58% | 1021.1 hPa | - | - | - | - |
* Rain since midnight (hover to see other rain measurements)
** Current wind speed in m/s (hover to see current wind gust speed)